EW3804 Weather Reports


Display with metric or nautical units.
time (UTC)temp
F
wind
direction
speed
MPH
gust
MPH
rain 1hr
in
rain 24hr
in
rain mn
in
humidity
%
barometer
mb
20260509150033 78 27 0.0 1.0 0.00 0.00 0.00 79 1003.6
20260509144532 77 24 0.0 0.0 0.00 0.00 0.00 80 1003.4
20260509143029 76 341 0.0 1.0 0.00 0.00 0.00 82 1003.3
20260509141535 76 326 0.0 0.0 0.00 0.00 0.00 84 1003.4
20260509140023 75 345 0.0 5.0 0.00 0.00 0.00 86 1003.3
20260509134522 74 307 0.0 0.0 0.00 0.00 0.00 88 1003.5
20260509133021 74 329 0.0 0.0 0.00 0.00 0.00 90 1003.3
20260509131515 72 283 0.0 0.0 0.00 0.00 0.00 91 1002.6
20260509130012 72 314 0.0 0.0 0.00 0.00 0.00 92 1002.8
20260509124508 70 316 0.0 0.0 0.00 0.00 0.00 94 1003.0
20260509123006 70 233 0.0 0.0 0.00 0.00 0.00 94 1001.4
20260509121504 70 176 0.0 0.0 0.00 0.00 0.00 95 1000.6
20260509120100 0 0.0 0.0 0.00 0.00 0.00 1000.5
20260509114555 0 0.0 0.0 0.00 0.00 0.00 1000.6
20260509113051 0 0.0 0.0 0.00 0.00 0.00 1001.7
20260509111546 0 0.0 0.0 0.00 0.00 0.00 1002.3
20260509110042 0 0.0 0.0 0.00 0.00 0.00 1001.9
20260509104538 0 0.0 0.0 0.00 0.00 0.00 1002.5
20260509103038 0 0.0 0.0 0.00 0.00 0.00 1002.9
20260509101528 0 0.0 0.0 0.00 0.00 0.00 1003.1
20260509100028 67 118 0.0 0.0 0.00 0.00 0.00 95 1003.4
20260509094526 68 120 0.0 0.0 0.00 0.00 0.00 94 1003.5
20260509093025 69 120 0.0 0.0 0.00 0.00 0.00 94 1003.4
20260509091522 69 120 0.0 0.0 0.00 0.00 0.00 94 1003.6
20260509090035 68 120 0.0 0.0 0.00 0.00 0.00 94 1003.5
20260509084522 68 120 0.0 1.0 0.00 0.00 0.00 95 1003.5
20260509083024 68 120 0.0 1.0 0.00 0.00 0.00 94 1004.0
20260509081521 67 121 0.0 0.0 0.00 0.00 0.00 94 1004.1
20260509080018 66 121 0.0 0.0 0.00 0.00 0.00 94 1003.9
20260509074517 67 121 0.0 0.0 0.00 0.00 0.00 94 1003.4
20260509073031 67 121 0.0 0.0 0.00 0.00 0.00 94 1003.3
20260509071515 67 121 0.0 1.0 0.00 0.00 0.00 93 1003.2
20260509070016 68 121 0.0 0.0 0.00 0.00 0.00 94 1003.8
20260509064514 67 121 0.0 1.0 0.00 0.00 0.00 94 1003.7
20260509063021 67 120 0.0 0.0 0.00 0.00 0.00 94 1003.5
20260509061507 66 121 0.0 0.0 0.00 0.00 0.00 94 1003.1
20260509060007 66 121 0.0 0.0 0.00 0.00 0.00 94 1002.9
20260509054505 66 121 0.0 0.0 0.00 0.00 0.00 94 1002.6
20260509053002 67 121 0.0 1.0 0.00 0.00 0.00 94 1002.8
20260509051611 67 121 0.0 1.0 0.00 0.00 0.00 94 1003.0
20260509044604 68 120 0.0 1.0 0.00 0.00 0.00 93 1003.1
20260509043059 69 121 0.0 0.0 0.00 0.00 0.00 93 1003.1
20260509041556 69 121 0.0 0.0 0.00 0.00 0.00 93 1003.1
20260509040107 69 121 0.0 0.0 0.00 0.00 0.00 93 1002.9
20260509034554 69 120 0.0 0.0 0.00 0.00 0.00 92 1002.5
20260509033114 70 121 0.0 1.0 0.00 0.00 0.00 92 1002.3
20260509031553 70 120 0.0 1.0 0.00 0.00 0.00 92 1002.2
20260509030052 71 120 0.0 0.0 0.00 0.00 0.00 90 1001.9
20260509024601 71 121 0.0 0.0 0.00 0.00 0.00 92 1001.9
20260509023050 70 121 0.0 0.0 0.00 0.00 0.00 91 1001.7
20260509021551 71 121 0.0 0.0 0.00 0.00 0.00 90 1001.6
20260509014549 72 121 0.0 1.0 0.00 0.00 0.00 89 1001.2
20260509013047 72 121 0.0 0.0 0.00 0.00 0.00 89 1001.3
20260509011551 73 121 0.0 0.0 0.00 0.00 0.00 88 1001.3
20260509010046 73 121 0.0 0.0 0.00 0.00 0.00 87 1001.4
20260509004549 73 121 0.0 1.0 0.00 0.00 0.00 87 1001.5
20260509003053 73 121 0.0 1.0 0.00 0.00 0.00 87 1001.6
20260509001545 73 120 0.0 0.0 0.00 0.00 0.00 86 1001.4
20260509000043 73 136 0.0 0.0 0.00 0.00 0.00 86 1001.4
20260508234544 73 126 0.0 0.0 0.00 0.00 0.00 85 1001.5
20260508233047 73 141 0.0 0.0 0.00 0.00 0.00 85 1001.6
20260508231547 73 127 0.0 0.0 0.00 0.00 0.00 85 1001.5
20260508230044 74 131 0.0 0.0 0.00 0.00 0.00 84 1001.4
20260508224550 73 135 0.0 0.0 0.00 0.00 0.00 84 1001.6
20260508223038 74 144 0.0 0.0 0.00 0.00 0.00 83 1001.7
20260508221536 74 128 0.0 0.0 0.00 0.00 0.00 83 1001.9
20260508220032 74 134 0.0 0.0 0.00 0.00 0.00 83 1002.1
20260508214533 73 136 0.0 0.0 0.00 0.00 0.00 84 1002.4
20260508213027 73 136 0.0 0.0 0.00 0.00 0.00 84 1002.5
20260508211527 73 117 0.0 0.0 0.00 0.00 0.00 83 1002.6
20260508210032 72 84 0.0 1.0 0.00 0.00 0.00 84 1003.0
20260508204521 71 161 0.0 0.0 0.00 0.00 0.00 84 1003.4
20260508203024 71 146 0.0 0.0 0.00 0.00 0.00 83 1003.4
20260508201517 71 136 0.0 0.0 0.00 0.00 0.00 84 1003.6
20260508200014 71 129 0.0 0.0 0.00 0.00 0.00 84 1003.7
20260508194510 70 97 0.0 0.0 0.00 0.00 0.00 84 1003.8
20260508193009 70 115 0.0 0.0 0.00 0.00 0.00 84 1004.0
20260508191506 70 125 0.0 0.0 0.00 0.00 0.00 84 1004.1
20260508190005 69 107 0.0 0.0 0.00 0.00 0.00 84 1004.3
20260508184504 69 115 0.0 0.0 0.00 0.00 0.00 83 1004.4
20260508183001 69 117 0.0 0.0 0.00 0.00 0.00 82 1004.6
20260508181658 68 120 0.0 1.0 0.00 0.00 0.00 83 1004.8
20260508180058 67 49 0.0 1.0 0.00 0.00 0.00 84 1005.2
20260508174554 67 113 0.0 1.0 0.00 0.00 0.00 84 1005.5
20260508173052 67 110 0.0 1.0 0.00 0.00 0.00 84 1005.8
20260508171549 67 107 0.0 1.0 0.00 0.00 0.00 83 1006.0
20260508170048 68 141 0.0 1.0 0.00 0.00 0.00 83 1006.3
20260508164547 68 109 0.0 1.0 0.00 0.00 0.00 82 1006.3
20260508163059 67 101 0.0 0.0 0.00 0.00 0.00 82 1006.3
20260508161554 67 127 0.0 1.0 0.00 0.00 0.00 81 1006.4
20260508160044 67 115 0.0 0.0 0.00 0.00 0.00 81 1006.4
20260508154542 67 63 0.0 1.0 0.00 0.00 0.00 80 1006.4
20260508153054 67 74 0.0 1.0 0.00 0.00 0.00 80 1006.2
20260508151538 66 51 0.0 0.0 0.00 0.00 0.00 81 1006.4